Simultaneous Nadir Overpasses (SNOs) Predictions

Prediction of SNOs between GOES-17 and METOP-B Satellite Orbit:

Table of predicted SNOs for the next 14.0 days since TLE Epoch: 7/6/2024
Index Date Time (GOES-17) GOES-17 Lat,Lon METOP-B Lat,Lon Distance(km) Time Diff (sec)
1 07/06/2024 04:16:59 0.00,-104.69 0.18,-103.95 84.82 2
2 07/07/2024 16:37:16 -0.01,-104.71 0.87,-108.54 436.39 80
3 07/08/2024 16:14:00 -0.02,-104.71 -0.26,-103.57 130.63 80
4 07/10/2024 04:35:44 0.02,-104.70 -0.77,-108.19 398.57 80
5 07/11/2024 04:12:28 0.03,-104.70 0.36,-103.22 168.75 80
6 07/12/2024 16:34:03 -0.03,-104.72 0.67,-107.81 351.59 80
7 07/13/2024 16:10:46 -0.03,-104.72 -0.47,-102.83 215.88 80
8 07/15/2024 04:32:30 0.03,-104.71 -0.61,-107.45 312.93 80
9 07/16/2024 04:09:13 0.03,-104.71 0.53,-102.48 254.44 80
10 07/17/2024 16:30:49 -0.02,-104.73 0.49,-107.07 266.23 80
11 07/18/2024 16:07:31 -0.03,-104.73 -0.60,-102.08 300.85 80
